TITAN 3C TRANSTAGE DEB, 43452

Orbit data source: Space-Track

TITAN 3C TRANSTAGE DEB, 43452 is space debris in GEO originally from a launch on Sun, 09 Feb 1969 UTC launched from the Air Force Eastern Test Range (AFETR). Debris objects in space refer to the collection of defunct objects orbiting the Earth. Examples of debris include non-operational satellites, rocket bodies, and fragments generated from explosions, collisions, or faulty payload assembly.

Not visible in the next 10 days
Identifier
43452, 1969-013K
Orbit
GEO
Country
Flag of USUS
Related business
Manufacturer
Martin Marietta
Mission
Spacecraft
Bus & Motor
Unknown
Mass
Unknown
Launch date (UTC)
1969-02-09 (57 years ago)
Launch vehicle
Unknown
Launch site
Air Force Eastern Test Range (AFETR)
Object type
Payload
Rocket body
Debris
Shape & HBR
Unknown shape, 1.1 m
Radar Cross Section
RCS unknown

Expand to show TLE details & history
Last TLE update: 21 hours ago

TLE from 21 hours ago
0 TITAN 3C TRANSTAGE DEB
1 43452U 69013K   25351.34379961  .00000015  00000-0  00000-0 0  9991
2 43452   0.7526 140.7656 0554277 331.1023 254.1486  1.03157266 28913
Epoch: 2025-12-17T08:15Z
TLE epoch observation values (Epoch: 2025-12-17T08:15:04.286Z)
Latitude
-0.46856°
Longitude
150.01495°
Altitude
35,730.454 km
Speed
3.049 km/s
True Right ascension
23h 59m 59s
True Declination
0° 28' 05"
Sunlit
Object was in daylight at epoch
Visualization orbit readout
Latitude
Unknown
Longitude
Unknown
Altitude
Unknown
Speed
Unknown
Apparent Right ascension
Unknown
Apparent Declination
Unknown
Sunlit
N/A
Visualization observer readout
Local Sidereal Time
04:04:59
Azimuth
Unknown
Elevation
Unknown
Doppler factor
Unknown
Orbital elements
Apogee altitude
37,291.066 km
Perigee altitude
32,704.331 km
Semi-major axis
41,375.836 km
Eccentricity
0.05543
Inclination
0.7526°
RAAN
140.7656°
Arg. of periapsis
331.1023°
True anomaly
248.16302°
Mean anomaly
254.1486°
Eccentric anomaly
251.14327°
Mean motion
0.25788 °/min
Orbital period
1,395.98 mins
BSTAR
0
Loading maneuver chart data...
Computing Atmospheric mass density...

Documentation

Showing up to 5 results
|